TVF21TN LFPO-LJLJ

Flight info

Callsign TVF21TN
Flight time 1h 24m
Altitude 37000
Route BUBLI DCT LUVAL DCT BEGAR DCT TRA DCT GAMSA DCT GEDSO DCT DEGUM
Aircraft B738/M-SDE2E3FGHIRWXY/LB1

Departure

Time 2026-05-06 17:29
Airport Paris-Orly Airport (LFPO)

Arrival

Time 2026-05-06 18:54
Airport Ljubljana Jože Pučnik Airport (LJLJ)
Time Latitude Longitude Altitude Speed Heading
2026-05-06 16:40 48.72714 2.36746 292 ft 0 kts 22°
2026-05-06 17:18 48.72711 2.36744 302 ft 2 kts 22°
2026-05-06 17:18 48.72696 2.36735 305 ft 2 kts 22°
2026-05-06 17:19 48.72681 2.36725 307 ft 2 kts 22°
2026-05-06 17:19 48.72666 2.36716 307 ft 2 kts 22°
2026-05-06 17:19 48.72651 2.36706 307 ft 2 kts 22°
2026-05-06 17:19 48.72645 2.36703 306 ft 0 kts 22°
2026-05-06 17:22 48.72646 2.36703 302 ft 1 kts 18°
2026-05-06 17:23 48.72656 2.36688 303 ft 3 kts 287°
2026-05-06 17:23 48.72639 2.36665 302 ft 5 kts 204°
2026-05-06 17:23 48.72600 2.36638 301 ft 7 kts 208°
2026-05-06 17:23 48.72567 2.36561 305 ft 11 kts 256°
2026-05-06 17:24 48.72544 2.36428 304 ft 14 kts 255°
2026-05-06 17:24 48.72516 2.36281 305 ft 15 kts 254°
2026-05-06 17:24 48.72488 2.36133 306 ft 14 kts 254°
2026-05-06 17:24 48.72468 2.35988 302 ft 14 kts 268°
2026-05-06 17:25 48.72475 2.35846 306 ft 14 kts 276°
2026-05-06 17:25 48.72468 2.35705 302 ft 13 kts 255°
2026-05-06 17:25 48.72480 2.35596 302 ft 12 kts 328°
2026-05-06 17:25 48.72555 2.35559 303 ft 11 kts 344°
2026-05-06 17:26 48.72633 2.35525 300 ft 12 kts 344°
2026-05-06 17:26 48.72725 2.35487 300 ft 15 kts 344°
2026-05-06 17:26 48.72830 2.35443 302 ft 16 kts 344°
2026-05-06 17:26 48.72894 2.35387 302 ft 10 kts 302°
2026-05-06 17:27 48.72947 2.35344 305 ft 10 kts 24°
2026-05-06 17:27 48.73009 2.35387 303 ft 10 kts 19°
2026-05-06 17:27 48.73073 2.35421 304 ft 10 kts 19°
2026-05-06 17:27 48.73137 2.35453 302 ft 10 kts 18°
2026-05-06 17:28 48.73179 2.35473 302 ft 10 kts 13°
2026-05-06 17:28 48.73242 2.35454 303 ft 9 kts 326°
2026-05-06 17:28 48.73292 2.35375 301 ft 7 kts 294°
2026-05-06 17:28 48.73284 2.35331 301 ft 7 kts 243°
2026-05-06 17:29 48.73211 2.35118 301 ft 54 kts 242°
2026-05-06 17:29 48.72917 2.34287 303 ft 122 kts 242°
2026-05-06 17:29 48.72438 2.32913 467 ft 160 kts 245°
2026-05-06 17:29 48.71885 2.31412 1188 ft 167 kts 242°
2026-05-06 17:30 48.71208 2.29944 2027 ft 173 kts 237°
2026-05-06 17:30 48.70499 2.28447 2809 ft 173 kts 238°
2026-05-06 17:30 48.69787 2.26923 3413 ft 188 kts 238°
2026-05-06 17:30 48.68980 2.25170 3710 ft 215 kts 237°
2026-05-06 17:31 48.68112 2.23263 4203 ft 224 kts 238°
2026-05-06 17:31 48.67229 2.21308 4800 ft 234 kts 237°
2026-05-06 17:31 48.66249 2.19108 5074 ft 264 kts 238°
2026-05-06 17:31 48.65214 2.16774 5863 ft 275 kts 237°
2026-05-06 17:32 48.64069 2.14389 6845 ft 279 kts 226°
2026-05-06 17:32 48.62383 2.12934 7684 ft 285 kts 195°
2026-05-06 17:32 48.60429 2.12790 8537 ft 290 kts 169°
2026-05-06 17:32 48.58580 2.13966 9392 ft 292 kts 141°
2026-05-06 17:33 48.57261 2.16266 10209 ft 294 kts 115°
2026-05-06 17:33 48.56699 2.19317 10595 ft 315 kts 92°
2026-05-06 17:33 48.56787 2.22757 10792 ft 341 kts 82°
2026-05-06 17:33 48.57167 2.26355 11348 ft 352 kts 79°
2026-05-06 17:34 48.57635 2.30022 12051 ft 358 kts 78°
2026-05-06 17:34 48.58117 2.33729 12802 ft 363 kts 79°
2026-05-06 17:34 48.58593 2.37518 13501 ft 370 kts 81°
2026-05-06 17:34 48.58753 2.41404 14227 ft 372 kts 94°
2026-05-06 17:35 48.58447 2.45285 14968 ft 374 kts 99°
2026-05-06 17:35 48.58060 2.49191 15618 ft 380 kts 99°
2026-05-06 17:35 48.57653 2.53153 16384 ft 382 kts 99°
2026-05-06 17:36 48.56839 2.61153 17867 ft 390 kts 99°
2026-05-06 17:36 48.56434 2.65222 18560 ft 393 kts 99°
2026-05-06 17:36 48.56031 2.69305 19225 ft 395 kts 99°
2026-05-06 17:36 48.55628 2.73418 19893 ft 397 kts 99°
2026-05-06 17:37 48.55222 2.77545 20514 ft 400 kts 99°
2026-05-06 17:37 48.54818 2.81662 21089 ft 403 kts 99°
2026-05-06 17:37 48.54400 2.85910 21707 ft 406 kts 99°
2026-05-06 17:37 48.53982 2.90138 22315 ft 408 kts 99°
2026-05-06 17:38 48.53562 2.94380 22894 ft 411 kts 99°
2026-05-06 17:38 48.53135 2.98668 23456 ft 414 kts 99°
2026-05-06 17:38 48.52705 3.02978 23954 ft 416 kts 99°
2026-05-06 17:38 48.52271 3.07309 24468 ft 418 kts 99°
2026-05-06 17:39 48.51834 3.11646 24958 ft 420 kts 99°
2026-05-06 17:39 48.51392 3.16014 25421 ft 422 kts 99°
2026-05-06 17:39 48.50946 3.20407 25882 ft 424 kts 99°
2026-05-06 17:39 48.50497 3.24814 26342 ft 426 kts 99°
2026-05-06 17:40 48.50046 3.29227 26790 ft 428 kts 99°
2026-05-06 17:40 48.49589 3.33672 27232 ft 429 kts 99°
2026-05-06 17:40 48.49130 3.38121 27670 ft 431 kts 100°
2026-05-06 17:40 48.48666 3.42600 28072 ft 433 kts 100°
2026-05-06 17:41 48.48198 3.47099 28452 ft 436 kts 100°
2026-05-06 17:41 48.47726 3.51623 28831 ft 438 kts 100°
2026-05-06 17:41 48.47250 3.56168 29212 ft 440 kts 100°
2026-05-06 17:41 48.46771 3.60727 29592 ft 442 kts 100°
2026-05-06 17:42 48.46294 3.65246 29927 ft 444 kts 100°
2026-05-06 17:42 48.45806 3.69846 30213 ft 446 kts 100°
2026-05-06 17:42 48.45309 3.74522 30542 ft 446 kts 100°
2026-05-06 17:42 48.44822 3.79077 30903 ft 446 kts 100°
2026-05-06 17:43 48.44327 3.83693 31239 ft 447 kts 100°
2026-05-06 17:43 48.43830 3.88311 31557 ft 448 kts 100°
2026-05-06 17:43 48.43330 3.92939 31872 ft 448 kts 100°
2026-05-06 17:43 48.42826 3.97588 32207 ft 449 kts 100°
2026-05-06 17:44 48.42320 4.02227 32520 ft 449 kts 100°
2026-05-06 17:44 48.41813 4.06865 32864 ft 450 kts 100°
2026-05-06 17:44 48.41303 4.11513 33190 ft 450 kts 100°
2026-05-06 17:44 48.40791 4.16160 33514 ft 450 kts 100°
2026-05-06 17:45 48.40275 4.20818 33831 ft 451 kts 100°
2026-05-06 17:45 48.39757 4.25483 34094 ft 452 kts 101°
2026-05-06 17:45 48.39237 4.30149 34319 ft 453 kts 101°
2026-05-06 17:45 48.38713 4.34827 34559 ft 454 kts 101°
2026-05-06 17:46 48.38186 4.39519 34776 ft 455 kts 101°
2026-05-06 17:46 48.37656 4.44217 35000 ft 455 kts 101°
2026-05-06 17:46 48.37126 4.48900 35243 ft 456 kts 101°
2026-05-06 17:46 48.36592 4.53600 35466 ft 457 kts 101°
2026-05-06 17:47 48.36061 4.58259 35665 ft 458 kts 101°
2026-05-06 17:47 48.35513 4.63042 35909 ft 458 kts 101°
2026-05-06 17:47 48.34979 4.67696 36140 ft 459 kts 101°
2026-05-06 17:47 48.34434 4.72421 36353 ft 459 kts 101°
2026-05-06 17:48 48.33884 4.77163 36563 ft 460 kts 101°
2026-05-06 17:48 48.33334 4.81897 36779 ft 461 kts 101°
2026-05-06 17:48 48.32781 4.86640 36910 ft 463 kts 102°
2026-05-06 17:48 48.32219 4.91436 36896 ft 466 kts 102°
2026-05-06 17:49 48.31090 5.01029 36887 ft 464 kts 102°
2026-05-06 17:49 48.29968 5.10513 36888 ft 459 kts 102°
2026-05-06 17:50 48.28796 5.19914 36894 ft 458 kts 104°
2026-05-06 17:50 48.27407 5.29232 36899 ft 457 kts 105°
2026-05-06 17:51 48.25974 5.38539 36896 ft 458 kts 105°
2026-05-06 17:51 48.24557 5.47863 36894 ft 459 kts 105°
2026-05-06 17:52 48.23144 5.57220 36880 ft 460 kts 105°
2026-05-06 17:52 48.21734 5.66539 36883 ft 461 kts 105°
2026-05-06 17:53 48.20304 5.75931 36871 ft 463 kts 105°
2026-05-06 17:53 48.18861 5.85351 36869 ft 464 kts 105°
2026-05-06 17:54 48.17408 5.94779 36864 ft 464 kts 105°
2026-05-06 17:54 48.15943 6.04229 36862 ft 465 kts 105°
2026-05-06 17:55 48.14480 6.13608 36860 ft 465 kts 105°
2026-05-06 17:55 48.12999 6.23049 36867 ft 465 kts 105°
2026-05-06 17:56 48.11514 6.32463 36866 ft 465 kts 105°
2026-05-06 17:56 48.10021 6.41872 36872 ft 465 kts 106°
2026-05-06 17:57 48.08522 6.51261 36872 ft 464 kts 106°
2026-05-06 17:57 48.07016 6.60649 36875 ft 464 kts 106°
2026-05-06 17:58 48.05504 6.70013 36877 ft 463 kts 106°
2026-05-06 17:58 48.03998 6.79297 36876 ft 463 kts 106°
2026-05-06 17:59 48.02464 6.88694 36867 ft 463 kts 106°
2026-05-06 17:59 48.00930 6.98040 36875 ft 463 kts 107°
2026-05-06 18:00 47.99398 7.07322 36855 ft 463 kts 107°
2026-05-06 18:00 47.97839 7.16720 36865 ft 464 kts 107°
2026-05-06 18:01 47.96289 7.26012 36864 ft 464 kts 107°
2026-05-06 18:01 47.94730 7.35304 36854 ft 465 kts 107°
2026-05-06 18:02 47.93142 7.44728 36863 ft 466 kts 107°
2026-05-06 18:02 47.91555 7.54096 36865 ft 467 kts 107°
2026-05-06 18:03 47.89708 7.63369 36887 ft 464 kts 113°
2026-05-06 18:03 47.87394 7.72346 36896 ft 465 kts 115°
2026-05-06 18:04 47.85035 7.81326 36897 ft 466 kts 115°
2026-05-06 18:04 47.82716 7.90331 36900 ft 466 kts 114°
2026-05-06 18:05 47.80411 7.99352 36888 ft 466 kts 114°
2026-05-06 18:05 47.78120 8.08292 36894 ft 465 kts 115°
2026-05-06 18:06 47.77304 8.11469 36890 ft 465 kts 115°
2026-05-06 18:06 47.74988 8.20447 36887 ft 465 kts 115°
2026-05-06 18:07 47.72662 8.29430 36892 ft 465 kts 115°
2026-05-06 18:07 47.70344 8.38349 36894 ft 465 kts 115°
2026-05-06 18:08 47.68042 8.47332 36895 ft 466 kts 113°
2026-05-06 18:08 47.65978 8.56471 36902 ft 467 kts 112°
2026-05-06 18:09 47.63966 8.65611 36902 ft 467 kts 112°
2026-05-06 18:09 47.61927 8.74687 36901 ft 467 kts 112°
2026-05-06 18:10 47.59848 8.83799 36892 ft 467 kts 113°
2026-05-06 18:10 47.57739 8.92972 36892 ft 467 kts 113°
2026-05-06 18:11 47.55998 9.00524 36891 ft 467 kts 113°
2026-05-06 18:11 47.53550 9.11098 36881 ft 467 kts 113°
2026-05-06 18:12 47.51442 9.20166 36874 ft 466 kts 113°
2026-05-06 18:12 47.49324 9.29237 36877 ft 466 kts 113°
2026-05-06 18:13 47.47198 9.38305 36891 ft 466 kts 113°
2026-05-06 18:13 47.45071 9.47342 36883 ft 466 kts 114°
2026-05-06 18:14 47.42937 9.56376 36885 ft 465 kts 114°
2026-05-06 18:14 47.40822 9.65385 36878 ft 466 kts 111°
2026-05-06 18:15 47.39582 9.73161 36888 ft 469 kts 105°
2026-05-06 18:15 47.38345 9.82621 36888 ft 469 kts 105°
2026-05-06 18:16 47.37091 9.92102 36867 ft 472 kts 105°
2026-05-06 18:16 47.35785 10.01585 36881 ft 470 kts 106°
2026-05-06 18:17 47.34455 10.11019 36898 ft 470 kts 106°
2026-05-06 18:17 47.33118 10.20414 36896 ft 469 kts 106°
2026-05-06 18:18 47.31772 10.29819 36894 ft 468 kts 106°
2026-05-06 18:18 47.30425 10.39182 36871 ft 469 kts 106°
2026-05-06 18:19 47.29062 10.48595 36846 ft 470 kts 106°
2026-05-06 18:19 47.27693 10.57999 36840 ft 470 kts 106°
2026-05-06 18:20 47.26309 10.67437 36819 ft 473 kts 107°
2026-05-06 18:20 47.24916 10.76891 36820 ft 473 kts 107°
2026-05-06 18:21 47.23515 10.86341 36817 ft 473 kts 107°
2026-05-06 18:21 47.22106 10.95788 36796 ft 472 kts 107°
2026-05-06 18:22 47.20692 11.05206 36809 ft 472 kts 107°
2026-05-06 18:22 47.19261 11.14653 36832 ft 475 kts 107°
2026-05-06 18:23 47.17832 11.24079 36817 ft 474 kts 107°
2026-05-06 18:23 47.16390 11.33530 36790 ft 474 kts 108°
2026-05-06 18:24 47.14938 11.42971 36631 ft 475 kts 107°
2026-05-06 18:24 47.14209 11.47694 36364 ft 473 kts 108°
2026-05-06 18:24 47.13481 11.52401 36117 ft 473 kts 108°
2026-05-06 18:25 47.12750 11.57106 35858 ft 473 kts 108°
2026-05-06 18:25 47.12014 11.61833 35607 ft 474 kts 108°
2026-05-06 18:25 47.11277 11.66546 35371 ft 475 kts 109°
2026-05-06 18:25 47.10538 11.71270 34721 ft 475 kts 109°
2026-05-06 18:26 47.09796 11.76002 34120 ft 476 kts 110°
2026-05-06 18:26 47.09051 11.80733 33380 ft 478 kts 110°
2026-05-06 18:26 47.08266 11.85449 32839 ft 468 kts 114°
2026-05-06 18:26 47.07210 11.89859 32464 ft 453 kts 123°
2026-05-06 18:27 47.05806 11.93980 32222 ft 455 kts 125°
2026-05-06 18:27 47.04330 11.98127 31735 ft 460 kts 126°
2026-05-06 18:27 47.02843 12.02290 31388 ft 461 kts 126°
2026-05-06 18:27 47.01372 12.06442 30987 ft 458 kts 126°
2026-05-06 18:28 46.99917 12.10582 30644 ft 454 kts 125°
2026-05-06 18:28 46.98483 12.14687 30252 ft 452 kts 125°
2026-05-06 18:28 46.97060 12.18765 29921 ft 449 kts 125°
2026-05-06 18:28 46.95640 12.22838 29492 ft 448 kts 125°
2026-05-06 18:29 46.94243 12.26841 29116 ft 445 kts 125°
2026-05-06 18:29 46.92824 12.30905 28738 ft 442 kts 125°
2026-05-06 18:29 46.91448 12.34840 28382 ft 439 kts 125°
2026-05-06 18:29 46.90058 12.38805 28019 ft 435 kts 125°
2026-05-06 18:30 46.88683 12.42722 27657 ft 432 kts 125°
2026-05-06 18:30 46.87310 12.46624 27288 ft 430 kts 124°
2026-05-06 18:30 46.85944 12.50503 26894 ft 427 kts 125°
2026-05-06 18:30 46.84590 12.54344 26594 ft 424 kts 124°
2026-05-06 18:31 46.83240 12.58162 26218 ft 424 kts 124°
2026-05-06 18:31 46.81883 12.61990 25839 ft 422 kts 124°
2026-05-06 18:31 46.80538 12.65785 25515 ft 420 kts 124°
2026-05-06 18:31 46.79194 12.69571 25145 ft 419 kts 124°
2026-05-06 18:32 46.77855 12.73341 24788 ft 416 kts 124°
2026-05-06 18:32 46.76525 12.77078 24446 ft 414 kts 124°
2026-05-06 18:32 46.75201 12.80794 24132 ft 412 kts 124°
2026-05-06 18:32 46.73880 12.84497 23797 ft 411 kts 123°
2026-05-06 18:33 46.72558 12.88194 23422 ft 410 kts 123°
2026-05-06 18:33 46.71243 12.91869 23055 ft 408 kts 123°
2026-05-06 18:33 46.69932 12.95531 22658 ft 406 kts 123°
2026-05-06 18:33 46.68631 12.99159 22312 ft 401 kts 123°
2026-05-06 18:34 46.67349 13.02731 22000 ft 397 kts 123°
2026-05-06 18:34 46.66070 13.06288 21647 ft 395 kts 123°
2026-05-06 18:34 46.64803 13.09803 21307 ft 393 kts 123°
2026-05-06 18:34 46.63538 13.13311 20977 ft 390 kts 123°
2026-05-06 18:35 46.62279 13.16792 20654 ft 387 kts 123°
2026-05-06 18:35 46.61033 13.20239 20345 ft 384 kts 123°
2026-05-06 18:35 46.59789 13.23675 20035 ft 383 kts 123°
2026-05-06 18:35 46.58544 13.27107 19694 ft 382 kts 123°
2026-05-06 18:36 46.57308 13.30512 19368 ft 381 kts 123°
2026-05-06 18:36 46.56076 13.33908 19089 ft 379 kts 123°
2026-05-06 18:36 46.54837 13.37307 18763 ft 380 kts 123°
2026-05-06 18:36 46.53601 13.40695 18481 ft 380 kts 123°
2026-05-06 18:37 46.52360 13.44088 18181 ft 380 kts 123°
2026-05-06 18:37 46.51126 13.47465 17834 ft 378 kts 123°
2026-05-06 18:37 46.49901 13.50818 17499 ft 373 kts 123°
2026-05-06 18:37 46.48693 13.54123 17166 ft 369 kts 123°
2026-05-06 18:38 46.47513 13.57345 16866 ft 363 kts 123°
2026-05-06 18:38 46.46336 13.60554 16555 ft 359 kts 123°
2026-05-06 18:38 46.45165 13.63736 16295 ft 357 kts 123°
2026-05-06 18:38 46.43994 13.66911 15936 ft 358 kts 123°
2026-05-06 18:39 46.42818 13.70108 15654 ft 361 kts 123°
2026-05-06 18:39 46.41635 13.73314 15398 ft 359 kts 123°
2026-05-06 18:39 46.40455 13.76506 15086 ft 359 kts 123°
2026-05-06 18:40 46.38100 13.82868 14460 ft 357 kts 123°
2026-05-06 18:40 46.36931 13.86032 14165 ft 355 kts 123°
2026-05-06 18:40 46.35766 13.89168 13854 ft 353 kts 124°
2026-05-06 18:40 46.34608 13.92278 13545 ft 351 kts 124°
2026-05-06 18:41 46.33453 13.95382 13248 ft 349 kts 123°
2026-05-06 18:41 46.32694 13.97429 13043 ft 347 kts 123°
2026-05-06 18:41 46.31495 14.00648 12746 ft 345 kts 123°
2026-05-06 18:41 46.30356 14.03697 12453 ft 344 kts 123°
2026-05-06 18:42 46.29221 14.06740 12156 ft 343 kts 123°
2026-05-06 18:42 46.28092 14.09761 11891 ft 341 kts 123°
2026-05-06 18:42 46.26964 14.12771 11619 ft 341 kts 123°
2026-05-06 18:42 46.25802 14.15773 11330 ft 341 kts 127°
2026-05-06 18:43 46.24456 14.18585 11031 ft 339 kts 131°
2026-05-06 18:43 46.23048 14.21254 10751 ft 336 kts 133°
2026-05-06 18:43 46.21630 14.23903 10469 ft 331 kts 133°
2026-05-06 18:43 46.20237 14.26521 10203 ft 326 kts 133°
2026-05-06 18:44 46.18875 14.29108 9945 ft 321 kts 132°
2026-05-06 18:44 46.17561 14.31627 9944 ft 307 kts 132°
2026-05-06 18:44 46.16306 14.34044 9644 ft 302 kts 133°
2026-05-06 18:44 46.15033 14.36488 9195 ft 301 kts 132°
2026-05-06 18:45 46.13785 14.38890 8883 ft 297 kts 132°
2026-05-06 18:45 46.12564 14.41243 8605 ft 293 kts 132°
2026-05-06 18:45 46.11346 14.43589 8377 ft 289 kts 133°
2026-05-06 18:45 46.10550 14.45119 8215 ft 288 kts 133°
2026-05-06 18:46 46.08943 14.48203 7899 ft 288 kts 132°
2026-05-06 18:46 46.07775 14.50549 7653 ft 289 kts 130°
2026-05-06 18:46 46.06650 14.52943 7409 ft 289 kts 129°
2026-05-06 18:46 46.05529 14.55341 7160 ft 289 kts 129°
2026-05-06 18:47 46.04402 14.57734 6917 ft 288 kts 129°
2026-05-06 18:47 46.03273 14.60116 6669 ft 288 kts 129°
2026-05-06 18:47 46.02143 14.62492 6441 ft 288 kts 129°
2026-05-06 18:47 46.01180 14.65022 6134 ft 293 kts 110°
2026-05-06 18:48 46.01063 14.67933 5906 ft 294 kts 81°
2026-05-06 18:48 46.01875 14.70593 5633 ft 290 kts 51°
2026-05-06 18:48 46.03310 14.72517 5415 ft 278 kts 34°
2026-05-06 18:48 46.04997 14.73649 5152 ft 260 kts
2026-05-06 18:49 46.06688 14.73307 4945 ft 236 kts 324°
2026-05-06 18:49 46.07957 14.71985 4863 ft 219 kts 314°
2026-05-06 18:49 46.09070 14.70558 4646 ft 209 kts 308°
2026-05-06 18:49 46.10064 14.69107 4489 ft 199 kts 306°
2026-05-06 18:50 46.10948 14.67630 4306 ft 190 kts 302°
2026-05-06 18:50 46.11743 14.66153 4158 ft 182 kts 301°
2026-05-06 18:50 46.12484 14.64736 4045 ft 171 kts 300°
2026-05-06 18:50 46.13205 14.63342 3890 ft 178 kts 300°
2026-05-06 18:51 46.13933 14.61944 3689 ft 169 kts 301°
2026-05-06 18:51 46.14618 14.60626 3463 ft 160 kts 300°
2026-05-06 18:51 46.15269 14.59373 3281 ft 151 kts 300°
2026-05-06 18:51 46.15880 14.58195 3065 ft 149 kts 300°
2026-05-06 18:52 46.16512 14.56979 2895 ft 151 kts 303°
2026-05-06 18:52 46.17174 14.55759 2698 ft 155 kts 305°
2026-05-06 18:52 46.17814 14.54491 2468 ft 160 kts 304°
2026-05-06 18:52 46.18477 14.53217 2271 ft 159 kts 308°
2026-05-06 18:53 46.19143 14.51930 2045 ft 159 kts 310°
2026-05-06 18:53 46.19833 14.50662 1767 ft 163 kts 308°
2026-05-06 18:53 46.20510 14.49362 1536 ft 161 kts 308°
2026-05-06 18:53 46.21172 14.48097 1351 ft 154 kts 306°
2026-05-06 18:54 46.21786 14.46900 1220 ft 140 kts 307°
2026-05-06 18:54 46.22264 14.45957 1240 ft 86 kts 307°
2026-05-06 18:54 46.22480 14.45551 1245 ft 36 kts 311°
2026-05-06 18:54 46.22616 14.45400 1250 ft 19 kts 331°
2026-05-06 18:55 46.22732 14.45334 1261 ft 14 kts 344°
2026-05-06 18:55 46.22827 14.45311 1261 ft 13 kts
2026-05-06 18:55 46.22894 14.45369 1259 ft 10 kts 38°
2026-05-06 18:55 46.22954 14.45395 1263 ft 10 kts 325°
2026-05-06 18:56 46.22990 14.45383 1262 ft 5 kts 26°
2026-05-06 18:56 46.23020 14.45413 1266 ft 4 kts 36°
2026-05-06 18:56 46.23026 14.45419 1263 ft 0 kts 36°